Location: Bieg
(49.3499°N, 10.3835°E)
Time: 13:09:25
(UTC+00:00)

Cosmos 1782 Rocket - Pass Details

Date: 23 May 2024
Orbit: 602 x 629 km, 82.5° (Epoch: 24 June)

Event Time Altitude Azimuth Distance (km) Brightness Sun altitude
Rises 01:50:36 0° 342° (NNW) 2,901 7.5 -12.0°
Reaches altitude 10° 01:53:00 10° 333° (NNW) 1,985 6.5 -11.7°
Maximum altitude 01:56:55 32° 270° (W) 1,048 4.4 -11.3°
Enters shadow 01:59:48 16° 214° (SW) 1,620 5.0 -11.0°
